Location: Acton
(51.4942°N, 0.2232°W)
Time: 12:48:05
(UTC+00:00)

USA 229 - Pass Details

Date: 18 September 2020
Orbit: 973 x 1239 km, 63.4° (Epoch: 14 October)

Event Time Altitude Azimuth Distance (km) Brightness Sun altitude
Rises 18:40:28 0° 242° (WSW) 3,714 7.5 -5.9°
Reaches altitude 10° 18:43:03 10° 246° (WSW) 2,792 6.9 -6.3°
Maximum altitude 18:49:31 57° 325° (NW) 1,227 4.4 -7.3°
Drops below altitude 10° 18:56:27 10° 44° (NE) 2,980 5.7 -8.4°
Sets 18:59:18 0° 49° (NE) 3,982 6.3 -8.8°
